カタログに戻る

STARLINK-37871

運用中通信SSO
NORAD 69549·PAYLOAD·🇺🇸 United States

打ち上げ Jun 15, 2026 から Vandenberg Space Force Base

Loading…

次のパス (今後24時間)

TLE

最新Source: CelesTrak SupGP

元期: Sep 15, 2026, 03:25 UTC

1 69549C 26135D   26258.14284722 -.00039104  00000+0 -12139-2 0  2587
2 69549  97.2836 285.8556 0000943 100.1742 344.4681 15.33458417    12

AllMySatでSTARLINK-37871をリアルタイム追跡

Download on the App Store